Wind_Speed
19 19 18 17 15 14 13 12 12 12 11 10 10 10 10 9 10 10 9 10 11 11 11 11 12 12 12 11 11 11 11 10 10 10 10 10 10 10 10 10 9 9
21 20 19 18 17 16 15 13 12 12 12 11 10 10 10 11 11 10 9 10 10 10 10 11 11 11 11 11 10 10 10 10 10 9 9 10 9 10 10 10 10 11
22 21 20 20 18 17 16 14 13 13 12 11 11 11 11 12 12 11 11 11 10 10 10 10 10 10 10 11 11 10 10 10 9 9 9 9 9 10 10 10 11 12
23 23 21 20 19 17 17 16 15 14 13 13 12 12 11 12 13 12 12 12 11 11 11 10 10 10 10 10 10 9 10 9 8 9 9 8 8 9 9 10 10 11
23 23 22 21 20 19 17 17 17 16 15 14 13 12 12 12 13 13 13 13 13 13 12 11 10 10 10 10 9 9 9 9 8 9 9 8 8 8 8 9 10 10
23 23 23 22 21 20 18 17 16 16 16 15 14 14 13 13 14 14 13 14 14 14 13 12 11 11 11 10 9 9 8 8 8 9 9 8 8 7 7 8 9 9
25 24 23 23 22 21 20 18 17 16 16 16 16 15 15 14 15 14 14 14 14 14 13 13 12 12 12 11 10 9 9 9 9 9 9 8 7 8 8 8 9 9
24 24 24 24 24 23 22 20 18 17 17 17 17 17 17 16 15 14 14 14 14 13 13 12 12 12 13 12 11 10 10 10 10 9 9 8 8 8 8 9 9 9
24 24 25 25 25 24 23 22 21 19 18 18 18 18 18 18 18 16 15 15 15 15 15 14 13 13 13 13 13 12 11 11 11 11 10 10 10 9 8 9 10 10
24 24 24 25 25 25 25 24 23 22 21 20 19 19 19 19 19 18 18 17 18 17 17 16 15 14 14 14 14 13 13 12 12 12 12 11 11 10 9 10 10 11
24 24 24 25 26 26 26 25 24 24 23 23 22 21 20 19 19 19 19 19 19 19 18 17 16 15 14 14 14 14 14 14 14 14 13 13 12 11 11 11 12 12
23 24 25 26 26 26 26 25 25 25 24 24 24 23 21 19 18 19 19 19 19 19 18 18 17 16 16 15 15 15 15 15 16 16 15 14 14 13 13 13 13 13
24 24 26 26 26 26 25 25 24 24 24 24 24 24 23 21 20 19 19 19 19 19 19 18 17 16 16 16 16 16 17 17 16 16 16 16 15 15 15 14 14 14
27 25 25 25 24 25 25 25 24 23 23 23 24 24 24 23 22 21 20 20 20 20 19 19 18 17 16 16 16 16 16 17 17 17 16 16 16 16 16 16 15 15
29 27 25 24 24 25 25 25 25 24 23 23 25 26 27 26 24 22 21 21 20 19 20 20 20 19 18 16 16 16 16 16 16 16 17 16 16 16 17 17 17 17
31 29 26 25 25 26 26 26 26 25 25 25 26 28 28 27 26 25 24 23 22 21 21 22 22 21 19 18 17 16 16 16 16 16 16 15 16 16 16 17 18 19
25 25 24 23 23 25 26 27 27 26 26 27 28 29 29 28 27 25 25 24 23 23 22 23 23 22 20 19 18 18 18 18 18 17 17 17 17 16 16 15 16 17
16 17 17 18 19 21 23 25 27 28 28 29 30 30 29 28 27 25 25 24 24 24 24 24 24 23 22 21 21 20 20 21 21 21 21 22 21 20 19 18 17 17
11 12 13 15 16 17 19 20 23 28 30 32 34 33 30 29 28 26 25 25 25 26 25 25 24 23 23 24 24 23 23 23 24 24 25 25 25 24 23 22 21 20
9 8 9 11 13 15 16 17 20 24 28 31 33 33 31 29 29 28 28 27 26 25 25 25 24 23 23 24 26 26 26 26 26 25 26 26 26 26 25 24 22 21
6 6 7 9 10 12 14 17 20 23 26 29 29 29 29 28 28 28 29 29 28 26 25 24 23 23 23 24 26 27 27 28 28 28 27 27 27 27 27 25 24 23
3 3 5 7 8 9 10 13 16 19 20 22 24 25 26 25 25 25 26 27 28 27 27 26 24 24 24 25 26 27 27 28 29 29 29 29 29 28 28 27 26 25
2 2 2 3 4 6 6 7 11 14 14 15 17 20 21 21 20 19 20 21 23 25 26 26 26 26 26 27 28 28 28 29 29 29 29 30 31 30 30 29 28 28
3 2 1 1 1 1 2 3 5 8 11 13 14 16 17 17 17 15 15 16 18 20 22 24 25 26 27 28 29 29 30 30 29 29 30 30 30 30 29 29 29 29
3 2 1 2 2 2 1 1 0 2 5 7 8 9 11 13 14 13 14 14 15 15 16 17 20 24 26 27 28 29 30 30 30 31 31 31 30 30 29 29 29 29
4 2 1 1 1 1 0 0 0 1 1 2 2 3 3 5 8 9 10 11 12 12 12 13 15 19 21 23 24 25 27 28 28 29 30 30 30 30 30 30 30 31
Wind_Direction
218 221 221 220 221 220 218 214 207 210 215 209 206 210 209 206 204 200 200 205 208 209 209 209 212 216 219 224 230 232 231 230 230 229 229 231 232 229 230 237 241 235
217 221 222 221 222 222 223 222 214 212 213 211 209 207 206 209 210 205 203 206 209 213 212 212 216 219 222 230 235 236 237 234 232 231 230 232 233 232 232 236 239 236
216 219 222 224 224 223 225 227 222 214 213 212 210 208 207 212 216 212 208 209 210 214 216 219 225 227 227 232 236 238 237 231 227 230 232 232 233 236 236 237 238 237
214 218 222 226 228 226 227 230 229 222 217 215 214 212 210 215 221 220 216 214 212 216 221 223 226 231 233 235 239 240 238 233 232 234 234 234 237 239 239 240 240 237
215 218 221 225 229 230 230 232 233 230 225 221 219 219 216 217 223 225 225 221 216 217 221 222 223 228 235 240 242 242 241 240 243 244 241 241 244 243 242 245 243 238
217 219 220 223 227 230 232 234 236 237 235 232 228 226 223 221 223 228 229 227 224 223 223 223 223 226 233 240 242 242 242 242 244 248 249 251 252 249 247 248 248 244
218 220 221 223 226 228 232 234 237 240 241 241 238 234 232 229 229 230 231 232 232 230 230 228 226 228 233 238 241 241 241 243 243 246 251 255 254 250 248 250 252 252
220 222 222 223 225 227 230 232 235 238 240 242 241 238 238 238 237 237 236 238 238 237 238 235 231 232 235 239 243 243 240 241 244 249 254 257 256 255 256 257 259 260
221 223 224 225 226 227 230 231 233 235 237 239 240 239 240 241 241 242 241 243 244 244 243 239 235 234 236 241 246 247 245 243 243 248 253 256 259 261 263 266 268 269
224 224 226 227 229 230 231 233 234 236 237 238 239 239 239 241 243 244 245 246 247 247 245 242 238 237 238 241 244 248 250 248 246 247 250 253 257 259 261 264 267 268
228 228 229 230 232 232 233 234 235 237 238 239 240 241 240 241 243 246 248 247 246 247 247 246 245 245 245 244 245 248 252 252 249 248 249 252 255 256 257 258 261 264
230 229 230 233 234 234 235 236 236 237 238 239 240 240 240 241 243 246 248 247 247 249 251 253 254 254 253 252 251 251 253 255 253 250 250 251 253 256 257 257 259 262
233 229 231 233 235 236 237 238 238 238 238 238 239 239 238 239 242 244 246 248 249 251 253 257 260 261 260 258 257 254 253 254 255 253 250 250 252 255 258 261 263 265
236 234 235 237 238 238 239 238 239 239 238 238 238 238 238 238 239 242 245 248 250 252 253 255 259 261 262 262 262 261 260 258 257 257 255 255 256 256 258 261 263 266
237 236 236 238 239 241 241 240 239 238 239 240 240 238 238 238 239 242 244 248 250 253 255 256 257 259 259 262 265 268 270 271 270 270 270 270 269 267 266 266 265 267
235 234 234 237 240 241 242 242 241 238 238 243 245 243 241 240 240 241 242 245 248 251 255 257 259 260 259 260 263 268 273 276 278 279 280 281 281 279 277 274 272 272
231 231 233 237 241 243 243 243 243 240 239 243 244 244 246 245 244 244 244 246 248 249 252 255 257 259 260 260 261 263 267 270 273 275 277 278 280 281 282 282 280 279
221 224 229 235 240 244 245 243 242 241 242 243 239 236 239 242 243 246 247 249 251 252 254 256 256 257 258 260 261 261 262 264 266 269 272 274 276 278 280 283 285 287
206 216 225 231 238 245 247 247 246 244 244 245 241 235 232 234 236 240 243 246 250 252 254 257 258 258 259 260 262 263 263 263 264 266 268 270 273 274 277 280 283 286
183 200 218 228 234 241 244 246 246 243 239 239 239 238 236 235 236 238 241 243 246 250 253 255 256 258 259 260 261 262 263 264 265 266 267 268 269 270 271 273 276 279
194 201 215 224 228 232 236 238 239 240 239 239 240 240 242 242 240 240 241 243 246 250 253 255 256 258 259 259 260 261 262 264 266 267 268 269 269 268 267 267 268 271
272 259 240 236 237 236 233 233 234 236 241 247 247 243 243 245 242 240 240 242 245 248 251 254 255 256 258 259 260 260 261 262 264 266 268 269 270 270 268 267 266 267
359 347 287 257 254 252 248 244 243 241 245 254 254 247 243 244 243 241 241 243 245 246 248 250 251 251 252 254 256 257 257 258 260 263 265 267 269 270 269 267 265 265
81 66 70 124 176 239 244 250 257 256 256 259 260 254 248 247 248 249 249 250 251 250 250 251 250 249 249 250 251 253 255 256 258 259 261 264 266 267 266 265 264 265
94 81 113 151 147 125 131 166 201 270 265 263 265 264 258 256 256 257 257 259 260 260 260 259 256 253 251 251 251 252 254 256 257 258 260 262 263 263 263 262 262 264
98 92 147 196 186 157 120 325 77 63 14 349 352 343 302 273 263 260 260 262 264 265 266 264 262 260 257 255 254 253 255 256 258 260 261 262 263 262 262 263 263 265
Height
1592 1593 1594 1595 1596 1597 1597 1599 1599 1600 1601 1602 1603 1604 1604 1605 1605 1605 1606 1607 1607 1608 1609 1610 1610 1611 1612 1613 1614 1615 1615 1616 1617 1617 1618 1618 1619 1619 1620 1620 1621 1621
1591 1593 1594 1595 1595 1596 1597 1598 1599 1600 1601 1602 1603 1604 1604 1605 1605 1606 1606 1607 1608 1608 1609 1609 1610 1611 1612 1613 1613 1614 1615 1615 1616 1617 1617 1618 1618 1619 1619 1620 1620 1620
1590 1592 1592 1594 1594 1595 1596 1597 1598 1599 1600 1601 1602 1604 1604 1605 1606 1606 1607 1607 1608 1608 1609 1609 1610 1611 1612 1612 1613 1613 1614 1615 1615 1616 1616 1617 1617 1618 1619 1619 1619 1620
1589 1590 1591 1593 1594 1595 1596 1597 1598 1599 1599 1600 1602 1603 1604 1605 1605 1606 1606 1607 1607 1608 1608 1609 1609 1610 1611 1612 1612 1613 1613 1614 1614 1615 1615 1616 1617 1617 1618 1618 1619 1619
1587 1588 1590 1591 1592 1594 1595 1595 1596 1598 1599 1600 1601 1602 1603 1604 1605 1605 1606 1606 1607 1607 1608 1608 1609 1609 1610 1611 1611 1612 1612 1613 1613 1614 1614 1615 1616 1616 1617 1617 1618 1618
1585 1587 1588 1589 1591 1592 1593 1594 1596 1597 1598 1599 1600 1601 1602 1603 1604 1604 1605 1606 1606 1607 1607 1607 1608 1608 1609 1610 1610 1611 1611 1612 1613 1613 1614 1614 1615 1615 1616 1616 1617 1617
1583 1585 1586 1587 1589 1590 1591 1593 1594 1596 1597 1598 1599 1600 1601 1602 1603 1603 1604 1605 1605 1606 1606 1607 1607 1608 1608 1609 1609 1610 1610 1611 1612 1612 1613 1613 1614 1614 1615 1615 1616 1616
1583 1583 1584 1586 1587 1588 1589 1591 1593 1594 1596 1597 1598 1599 1600 1601 1602 1602 1603 1604 1604 1605 1605 1606 1606 1607 1608 1608 1608 1609 1609 1610 1610 1611 1611 1612 1613 1613 1614 1614 1615 1615
1582 1583 1584 1585 1585 1586 1587 1589 1591 1593 1595 1596 1597 1599 1599 1600 1601 1601 1602 1602 1603 1603 1604 1605 1605 1606 1607 1607 1607 1608 1608 1609 1609 1610 1610 1611 1611 1612 1613 1613 1614 1614
1581 1582 1584 1584 1585 1585 1586 1588 1589 1591 1593 1595 1596 1597 1598 1599 1600 1600 1601 1601 1602 1602 1603 1603 1604 1605 1605 1606 1606 1607 1607 1608 1608 1609 1609 1610 1610 1611 1612 1612 1612 1613
1579 1581 1582 1583 1584 1584 1585 1586 1588 1589 1591 1593 1594 1596 1597 1598 1599 1599 1600 1600 1601 1601 1602 1602 1603 1603 1604 1605 1606 1606 1606 1607 1607 1608 1608 1608 1609 1610 1610 1611 1611 1611
1576 1577 1578 1580 1581 1583 1584 1585 1586 1588 1589 1591 1592 1594 1595 1596 1597 1598 1599 1599 1600 1600 1601 1601 1602 1602 1603 1603 1604 1605 1605 1606 1606 1606 1607 1607 1608 1608 1609 1609 1610 1610
1575 1575 1575 1577 1579 1581 1583 1584 1585 1586 1587 1589 1591 1592 1593 1594 1595 1596 1597 1598 1598 1599 1599 1600 1601 1601 1602 1602 1603 1604 1604 1604 1605 1605 1605 1606 1606 1607 1607 1608 1608 1609
1573 1574 1574 1576 1578 1579 1581 1582 1583 1584 1586 1587 1589 1590 1591 1592 1593 1594 1595 1596 1596 1597 1597 1598 1599 1600 1600 1601 1601 1602 1603 1603 1603 1604 1604 1604 1605 1605 1606 1606 1606 1607
1572 1572 1573 1575 1576 1577 1579 1581 1582 1583 1584 1586 1587 1588 1590 1591 1591 1592 1593 1594 1594 1595 1596 1596 1597 1598 1598 1599 1600 1600 1601 1601 1602 1602 1602 1603 1603 1603 1604 1604 1604 1605
1569 1570 1571 1573 1574 1575 1577 1579 1581 1582 1582 1584 1586 1587 1588 1589 1590 1590 1591 1591 1592 1592 1593 1594 1595 1595 1596 1597 1598 1599 1599 1600 1600 1600 1600 1600 1601 1601 1601 1602 1602 1602
1566 1566 1568 1570 1572 1573 1575 1577 1579 1580 1580 1583 1585 1587 1588 1588 1588 1588 1588 1589 1589 1590 1590 1591 1592 1593 1594 1595 1596 1597 1597 1598 1598 1598 1598 1598 1598 1598 1599 1599 1599 1600
1563 1564 1565 1568 1569 1570 1572 1575 1577 1577 1578 1581 1584 1586 1586 1586 1585 1585 1586 1586 1587 1587 1588 1588 1589 1590 1591 1592 1593 1594 1595 1595 1595 1595 1596 1596 1596 1596 1596 1597 1597 1597
1562 1563 1564 1566 1567 1568 1570 1573 1575 1575 1577 1581 1583 1583 1583 1582 1582 1582 1582 1583 1583 1584 1585 1585 1586 1587 1589 1590 1591 1591 1592 1592 1592 1593 1593 1593 1593 1594 1594 1594 1595 1595
1561 1562 1563 1565 1566 1566 1568 1570 1573 1574 1577 1580 1581 1580 1578 1577 1578 1578 1579 1580 1580 1581 1582 1582 1583 1585 1586 1587 1587 1588 1589 1589 1589 1590 1590 1590 1590 1591 1591 1591 1592 1592
1560 1561 1562 1563 1565 1566 1567 1569 1571 1573 1577 1579 1578 1576 1574 1574 1574 1574 1575 1577 1577 1578 1579 1580 1581 1582 1582 1583 1584 1584 1585 1586 1586 1587 1587 1587 1587 1588 1588 1588 1589 1589
1561 1562 1563 1564 1566 1567 1568 1569 1570 1571 1573 1575 1575 1573 1572 1572 1572 1571 1571 1573 1574 1575 1576 1577 1578 1579 1579 1580 1580 1581 1582 1582 1583 1583 1583 1584 1584 1584 1585 1585 1586 1586
1564 1564 1565 1566 1567 1568 1568 1569 1570 1570 1570 1572 1573 1572 1571 1571 1570 1568 1568 1569 1571 1572 1573 1574 1575 1576 1576 1576 1577 1577 1578 1578 1579 1579 1580 1580 1580 1581 1582 1582 1582 1583
1566 1566 1566 1567 1567 1568 1568 1568 1569 1569 1569 1570 1572 1572 1570 1568 1567 1565 1565 1567 1568 1569 1570 1570 1571 1572 1572 1572 1573 1573 1574 1574 1575 1575 1575 1576 1576 1577 1578 1578 1578 1579
1568 1568 1567 1567 1568 1568 1568 1568 1568 1569 1569 1570 1571 1570 1567 1565 1563 1563 1564 1565 1566 1567 1567 1568 1568 1568 1568 1568 1569 1569 1569 1570 1570 1570 1571 1571 1572 1572 1573 1574 1574 1575
1568 1568 1568 1568 1568 1568 1568 1568 1568 1568 1569 1569 1568 1566 1564 1562 1562 1562 1563 1563 1564 1564 1564 1565 1565 1565 1565 1565 1565 1565 1565 1566 1566 1566 1567 1567 1568 1568 1569 1570 1570 1571